Regional Weather Roundup
Issued by NWS

Home | Current Version | Previous Version | Graphics & Text | Print | Product List | Glossary Off
Versions: 1 2 3 4 5 6 7 8 9 10 11 12 13 14 15 16 17 18 19 20 21 22 23 24 25 26 27 28 29 30 31 32 33 34 35 36 37 38 39 40 41 42 43 44 45 46 47 48 49 50

000
ASUS43 KMPX 010701
RWRMN
WEATHER ROUNDUP FOR MINNESOTA
NATIONAL WEATHER SERVICE TWIN CITIES/CHANHASSEN MN
100 AM CST SUN MAR 01 2015


NOTE: "FAIR" INDICATES FEW OR NO CLOUDS BELOW 12,000 FEET WITH NO
SIGNIFICANT WEATHER AND/OR OBSTRUCTIONS TO VISIBILITY. N/A MEANS
CURRENT SKY AND/OR WEATHER CONDITIONS ARE NOT AVAILABLE.

MNZ060>063-068>070-010800-
   Twin Cities Metro

CITY           SKY/WX    TMP DP  RH WIND       PRES   REMARKS
TWIN CITIES    CLOUDY    14   7  73 S9        30.29F WCI   2
ST PAUL        MOCLDY    12   6  77 SE8       30.31F WCI   0
CRYSTAL        CLOUDY    15   8  73 S12       30.26F WCI   2
BLAINE         CLOUDY    16  10  79 S9        30.26F WCI   4
EDEN PRAIRIE   CLOUDY    14   8  77 S12       30.27F WCI   0
SOUTH ST PAUL  PTCLDY    13   7  77 S5        30.30F WCI   5
LAKE ELMO      FAIR      12   9  85 S10       30.29F WCI  -1
$$
MNZ001>005-007-008-013>017-022>024-027-028-010800-
   Northwest Minnesota

CITY           SKY/WX    TMP DP  RH WIND       PRES   REMARKS
BEMIDJI        FLURRIES  12   8  84 W12       30.10R WCI  -2
ROSEAU         CLEAR      5   0  78 SW6       30.09S WCI  -6
WARROAD        CLEAR      7   1  78 W9G17     30.08R WCI  -7
THIEF RVR FALL PTCLDY     1   0  92 SW7       30.14R WCI -11
CROOKSTON      CLEAR      0  -6  78 SW6       30.18S WCI -12
FOSSTON        PTCLDY     0  -4  85 SW8       30.15R WCI -15
DETROIT LAKES  CLEAR      9   3  78 W3        30.17S
MOORHEAD       CLEAR      5   1  85 SW6       30.22R WCI  -6
PARK RAPIDS    FLURRIES  14   8  77 W15       30.12S WCI  -1
MAHNOMEN       FAIR       2  -3  81 SW10      30.15S WCI -14
$$
MNZ006-009>011-018-025>026-010800-
   North Central Minnesota

CITY           SKY/WX    TMP DP  RH WIND       PRES   REMARKS
BAUDETTE       PTCLDY    13   7  77 W10       30.05R WCI   0
FLAG ISLAND    CLEAR     10   7  85 W8        30.03S WCI  -1
INTL FALLS     LGT SNOW  16  11  80 SW9       30.05S WCI   4
WASKISH        FLURRIES  14  10  85 SW12      30.09R WCI   0
BIG FORK       LGT SNOW  16  10  79 S12G18    30.09F WCI   3
LONGVILLE      FLURRIES  16  10  79 S5        30.13F WCI   9
GRAND RAPIDS   CLOUDY    14   9  79 S10       30.11S WCI   1
CRANE LAKE     FLURRIES  14   9  79 S8        30.12F WCI   3
ORR            LGT SNOW  14   7  73 S10       30.06F WCI   1
COOK           LGT SNOW  12   9  85 S7        30.11S WCI   2
WALKER         FLURRIES  16  12  86 S8        30.10F WCI   5
$$
MNZ012-019>021-037-010800-
   Northeast Minnesota

CITY           SKY/WX    TMP DP  RH WIND       PRES   REMARKS
DULUTH         FLURRIES  11   2  67 SW15      30.16F WCI  -5
ELY            CLOUDY    10   5  79 SW10      30.11F WCI  -3
HIBBING        CLOUDY    14   6  70 VRB7      30.12F WCI   4
EVELETH        LGT SNOW  12   9  85 SW8       30.14F WCI   1
DULUTH HARBOR  CLOUDY    14   5  67 SW9       30.25S WCI   2
SILVER BAY     CLOUDY    14   5  67 SW6       30.17F WCI   5
GRAND MARAIS     N/A     19  12  74 W10G31    30.20F WCI   7
G MARAIS ARPRT CLOUDY    10   3  72 SW9       30.10F HAZE    WCI  -2
$$
MNZ029>031-032-039>041-046>048-054>057-064-010800-
   West Central Minnesota

CITY           SKY/WX    TMP DP  RH WIND       PRES   REMARKS
FERGUS FALLS   PTCLDY     7   1  78 NW9       30.24S WCI  -7
MORRIS         MOCLDY    16   9  73 NW10      30.20R WCI   3
ALEXANDRIA     CLOUDY    16  12  84 SW10      30.16S WCI   4
ELBOW LAKE     FLURRIES  13   8  80 NW12      30.19S WCI  -1
WADENA         LGT SNOW  16  12  86 W10       30.14S WCI   3
APPLETON       CLOUDY    18  10  73 NW17      30.23R WCI   2
BENSON         FLURRIES  18  12  79 NW12      30.20R WCI   5
ORTONVILLE     CLOUDY    12   3  67 NW14G20   30.23R WCI  -3
MADISON        CLOUDY    18  10  73 NW14      30.23R WCI   4
WILLMAR        FAIR      16  10  79 CALM      30.20F
$$
MNZ033>034-036-042>043-049>051-058-059-010800-
   Central Minnesota

CITY           SKY/WX    TMP DP  RH WIND       PRES   REMARKS
ST CLOUD       CLOUDY    14   9  80 S12       30.21F WCI   0
SAUK CENTRE    FLURRIES  17  13  85 SW12      30.17F WCI   4
PAYNESVILLE    PTCLDY    14  11  87 SE9       30.20S WCI   2
PINE RIVER     FLURRIES  16  12  86 S6        30.17S WCI   7
BRAINERD       CLOUDY    13   9  84 S10       30.17F WCI   0
STAPLES        FLURRIES  16  12  86 SW9       30.15S WCI   4
LONG PRAIRIE   FLURRIES  16  12  86 S8        30.17S WCI   5
LITTLE FALLS   LGT SNOW  12   9  85 SE3       30.19F
LITCHFIELD     CLOUDY    16  12  86 S5        30.21F WCI   9
MAPLE LAKE     CLOUDY    15  11  83 S8        30.23F WCI   5
$$
MNZ037-044-045-052-053-010800-
   East Central Minnesota

CITY           SKY/WX    TMP DP  RH WIND       PRES   REMARKS
PRINCETON      CLOUDY    14   9  79 S7        30.22F WCI   4
MORA           MOCLDY    12   5  73 S6        30.24F WCI   3
CAMBRIDGE      CLOUDY    14   5  67 S6        30.23F WCI   5
RUSH CITY      CLOUDY    10   4  76 S6        30.25F WCI   1
MOOSE LAKE     LGT SNOW  12   5  73 CALM      30.20S
HINCKLEY       FLURRIES  12   9  85 S8        30.24S WCI   1
CLOQUET        FLURRIES  10   3  72 S9        30.17F WCI  -2
MCGREGOR       CLOUDY    14  10  85 S12       30.18S WCI   0
$$
MNZ071>073-080-081-089-090-097-098-010800-
   Southwest Minnesota

CITY           SKY/WX    TMP DP  RH WIND       PRES   REMARKS
MONTEVIDEO     MOCLDY    18  12  79 NW9       30.22R WCI   6
GRANITE FALLS  PTCLDY    17  12  80 SW14      30.22S WCI   3
CANBY          CLOUDY    19  15  82 NW10      30.24R WCI   8
MARSHALL       PTCLDY    18   9  68 SW22      30.22R WCI   0
REDWOOD FALLS  FAIR      15  11  83 S12       30.23S WCI   2
OLIVIA         CLEAR     16  12  86 S9        30.21S WCI   4
PIPESTONE      PTCLDY     9   7  92 W3        30.20S
WINDOM         CLEAR     16  12  86 S13G22    30.23S WCI   2
WORTHINGTON    CLEAR     21   9  58 S15       30.25R WCI   8
JACKSON        CLEAR     14  10  85 S12       30.25S WCI   0
TRACY          PTCLDY    17  13  82 SW20G25   30.22R WCI   1
SLAYTON        CLEAR     13  10  85 SW15      30.21R WCI  -2
$$
MNZ065>067-074>077-082>085-091>093-010800-
   South Central Minnesota

CITY           SKY/WX    TMP DP  RH WIND       PRES   REMARKS
MANKATO        CLOUDY    10 -11  37 S9        30.28S WCI  -2
NEW ULM        CLOUDY    16  12  86 S12       30.26S WCI   3
ST JAMES       PTCLDY    16  12  86 S15       30.26F WCI   1
FAIRMONT       CLEAR     10   7  85 S9        30.26S WCI  -2
GLENCOE        CLOUDY    15  12  88 S9G16     30.25S WCI   3
FARIBAULT      CLEAR     10   7  85 S8        30.29F WCI  -1
OWATONNA       CLEAR     10   7  85 S12       30.28F WCI  -4
WASECA         CLEAR     12   9  85 S15       30.30F WCI  -4
ALBERT LEA     FAIR      10   9  92 S7        30.29F WCI   0
$$
MNZ078>079-086>088-094>096-010800-
   Southeast Minnesota

CITY           SKY/WX    TMP DP  RH WIND       PRES   REMARKS
ROCHESTER      CLEAR      8   4  83 S13       30.30F WCI  -8
RED WING       CLOUDY    14   7  73 S7        30.33S WCI   4
STANTON        CLEAR     14   8  79 S8        30.28F WCI   3
DODGE CENTER   CLOUDY    10   9  92 S16       30.28F WCI  -7
WINONA         CLOUDY    14   9  79 S3        30.39F
AUSTIN         CLOUDY     9   7  92 S9        30.31S WCI  -5
PRESTON        FLURRIES   8   5  87 S10       30.32F WCI  -7
$$
ABBREVIATIONS USED IN REMARKS
   TC - TEMPERATURES IN CELSIUS
  WCI - WIND CHILL INDEX
   HX - HEAT INDEX
  VSB - VISIBILITY
$$


USA.gov is the U.S. government's official web portal to all federal, state and local government web resources and services.